Flag for Canada Weather past 2 weeks in Owen Sound, Ontario, Canada

Now
59 °F

Drizzle. Fog.


Feels Like: 58 °F
Forecast: 56 / 73 °F
Wind: 6 mph from West

Location: Wiarton

Current Time: Jul 7, 2015 at 4:13:08 PM

Latest Report: Jul 7, 2015 at 3:00 PM


Visibility: 1 mi

Pressure: 29.83 "Hg

Humidity: 94%

Dew point: 57 °F

Location of Owen SoundLocation

Historic Weather in Owen Sound — Graph

°F

Owen Sound temperature yesterday

Maximum temperature yesterday: 82 °F (at 3:00 PM)
Minimum temperature yesterday: 57 °F (at 1:00 AM)
Average temperature yesterday: 69 °F

Past Weeks' High & Low Weather Summary

 TemperatureHumidityPressure
High82 °F (Jul 6, 3:00 PM)100% (Jun 24, 4:00 AM)30.14 "Hg (Jun 24, 4:00 AM)
Low43 °F (Jul 3, 3:00 AM)35% (Jul 2, 3:00 PM)29.57 "Hg (Jun 23, 4:00 AM)
Average61 °F81%29.95 "Hg
* Reported Jun 22 3:00 PM — Jul 7 3:00 PM, Owen Sound, Weather by CustomWeather, © 2015

Note: Actual official high and low records may vary slightly from our data, if they occured in-between our weather recording intervals... More about our weather records

Advertising

Owen Sound weather history for previous 24 hours

 ConditionsComfort  
Time TempWeatherWind HumidityBarometerVisibility
3:00 PM
Tue, Jul 7
59 °FDrizzle. Fog.6 mph94%29.83 "Hg1 mi
2:00 PM59 °FLight rain. Fog.7 mph94%29.82 "Hg1 mi
1:00 PM59 °FLight rain. Fog.5 mph94%29.82 "Hg1 mi
12:00 PM59 °FLight rain. Fog.5 mph100%29.82 "Hg1 mi
11:00 AM63 °FSprinkles. Fog.8 mph100%29.81 "Hg1 mi
10:00 AM72 °FLight rain. Fog.7 mph88%29.79 "Hg5 mi
9:00 AM73 °FOvercast.12 mph78%29.79 "Hg8 mi
8:00 AM72 °FMostly cloudy.13 mph78%29.78 "Hg10 mi
7:00 AM70 °FMostly cloudy.13 mph78%29.80 "Hg12 mi
6:00 AM68 °FMostly cloudy.14 mph78%29.80 "Hg12 mi
5:00 AM68 °FPartly cloudy.14 mph78%29.80 "Hg15 mi
4:00 AM68 °FOvercast.14 mph73%29.81 "Hg15 mi
3:00 AM68 °FOvercast.13 mph78%29.83 "Hg15 mi
2:00 AM68 °FPassing clouds.12 mph83%29.84 "Hg15 mi
1:00 AM68 °FPassing clouds.10 mph83%29.86 "Hg12 mi
12:00 AM68 °FPassing clouds.8 mph88%29.88 "Hg12 mi
11:00 PM
Mon, Jul 6
68 °FPassing clouds.7 mph88%29.88 "Hg12 mi
10:00 PM64 °FPartly sunny.6 mph100%29.90 "Hg10 mi
9:00 PM68 °FPartly sunny.No wind78%29.91 "Hg10 mi
8:00 PM73 °FHigh level clouds.2 mph69%29.92 "Hg10 mi
7:00 PM77 °FPartly sunny.2 mph57%29.93 "Hg15 mi
6:00 PM77 °FPartly sunny.6 mph57%29.96 "Hg15 mi
5:00 PM77 °FPartly sunny.2 mph61%29.97 "Hg12 mi
4:00 PM77 °FPartly sunny.6 mph57%29.99 "Hg15 mi
Weather by CustomWeather, © 2015

See weather overviewHow to use our weather pages